User: anonymous   Login
Location: Vancouver
(49.2500°N, 123.1330°W)
Time: 02:32:39
(UTC-07:00)
Language:

Cosmos 1408 Rocket - Orbit

View from above orbital plane
View from above orbital plane
View from above satellite
View from above satellite

Ground track
Ground track

The orbit data is extracted from the following two-line orbital elements,

1 13553U 82092B   17296.93389025 +.00000111 +00000-0 +10319-4 0  9993
2 13553 082.5660 114.1382 0020931 343.4649 127.1445 14.84141866875045
Epoch (UTC): 23 October 2017 22:24:48
Eccentricity: 0.0020931
inclination: 82.5660°
perigee height: 601 km
apogee height: 631 km
right ascension of ascending node: 114.1382°
argument of perigee: 343.4649°
revolutions per day: 14.84141866
mean anomaly at epoch: 127.1445°
orbit number at epoch: 87504

The dashed part of the orbit path shows where the satellite is in the earth's shadow,  

DLR